FW4490 Weather Reports


time (UTC)temp
C
wind
direction
speed
KPH
gust
KPH
rain 1hr
cm
rain 24hr
cm
rain mn
cm
humidity
%
barometer
mb
20260503021907 11 180 0.0 0.0 0.00 0.00 0.00 65 1008.2
20260503021406 12 180 0.0 0.0 0.00 0.00 0.00 64 1008.0
20260503020908 12 180 0.0 0.0 0.00 0.00 0.00 63 1008.2
20260503020407 12 180 0.0 0.0 0.00 0.00 0.00 61 1008.4
20260503015907 12 180 0.0 0.0 0.00 0.00 0.00 61 1008.3
20260503015637 12 180 0.0 0.0 0.00 0.00 0.00 61 1008.4
20260503015137 12 180 0.0 0.0 0.00 0.00 0.00 60 1008.5
20260503014406 11 180 0.0 0.0 0.00 0.00 0.00 61 1008.5
20260503013906 11 180 0.0 0.0 0.00 0.00 0.00 61 1008.5
20260503013407 11 180 0.0 0.0 0.00 0.00 0.00 61 1008.6
20260503012905 11 180 0.0 0.0 0.00 0.00 0.00 61 1008.6
20260503012406 12 180 0.0 0.0 0.00 0.00 0.00 61 1008.6
20260503011904 12 180 0.0 0.0 0.00 0.00 0.00 60 1008.4
20260503011405 12 180 0.0 0.0 0.00 0.00 0.00 60 1008.6
20260503011348 12 180 0.0 0.0 0.00 0.00 0.00 59 1008.3
20260503010405 12 180 0.0 0.0 0.00 0.00 0.00 58 1008.2
20260503005903 12 180 0.0 0.0 0.00 0.00 0.00 59 1008.2
20260503005404 12 180 0.0 0.0 0.00 0.00 0.00 57 1008.2
20260503004903 12 180 0.0 0.0 0.00 0.00 0.00 56 1008.3
20260503004405 13 180 0.0 0.0 0.00 0.00 0.00 57 1008.2
20260503003904 13 180 0.0 0.0 0.00 0.00 0.00 56 1008.2
20260503003631 13 180 0.0 0.0 0.00 0.00 0.00 55 1008.2
20260503002903 13 180 0.0 0.0 0.00 0.00 0.00 57 1008.0
20260503002404 12 180 0.0 0.0 0.00 0.00 0.00 59 1007.8
20260503001904 12 180 0.0 0.0 0.00 0.00 0.00 60 1007.8
20260503001404 12 180 0.0 0.0 0.00 0.00 0.00 59 1007.9
20260503000903 12 180 0.0 0.0 0.00 0.00 0.00 59 1007.8
20260503000403 13 180 0.0 0.0 0.00 0.00 0.00 58 1007.7
20260502235902 13 180 0.0 0.0 0.00 0.00 0.00 58 1007.7
20260502235404 13 180 0.0 0.0 0.00 0.00 0.00 58 1007.7
20260502234902 13 180 0.0 0.0 0.00 0.00 0.00 57 1007.7
20260502234404 13 180 0.0 0.0 0.00 0.00 0.00 58 1007.7
20260502233902 13 180 0.0 0.0 0.00 0.00 0.00 58 1007.7
20260502233403 13 180 0.0 0.0 0.00 0.00 0.00 57 1007.7
20260502232902 13 180 0.0 0.0 0.00 0.00 0.00 56 1007.7
20260502232403 13 180 0.0 0.0 0.00 0.00 0.00 55 1007.7
20260502231902 14 180 0.0 0.0 0.00 0.00 0.00 55 1007.6
20260502231403 14 180 0.0 0.0 0.00 0.00 0.00 54 1007.6
20260502230901 14 180 0.0 0.0 0.00 0.00 0.00 54 1007.6
20260502230415 14 180 0.0 0.0 0.00 0.00 0.00 53 1007.6
20260502225901 15 180 0.0 0.0 0.00 0.00 0.00 53 1007.6
20260502225402 15 180 0.0 0.0 0.00 0.00 0.00 53 1007.7
20260502225120 15 180 0.0 0.0 0.00 0.00 0.00 54 1007.6
20260502224402 15 180 0.0 0.0 0.00 0.00 0.00 54 1007.5
20260502223900 15 180 0.0 0.0 0.00 0.00 0.00 54 1007.5
20260502223846 15 180 0.0 0.0 0.00 0.00 0.00 53 1007.5
20260502222901 15 180 0.0 0.0 0.00 0.00 0.00 51 1007.4
20260502222623 15 180 0.0 0.0 0.00 0.00 0.00 51 1007.4
20260502221900 16 180 0.0 0.0 0.00 0.00 0.00 51 1007.5
20260502221401 16 180 0.0 0.0 0.00 0.00 0.00 51 1007.3
20260502221125 16 180 0.0 0.0 0.00 0.00 0.00 50 1007.5
20260502220625 16 180 0.0 0.0 0.00 0.00 0.00 50 1007.5
20260502215900 16 180 0.0 0.0 0.00 0.00 0.00 50 1007.5
20260502215401 16 180 0.0 0.0 0.00 0.00 0.00 51 1007.7
20260502214859 16 180 0.0 0.0 0.00 0.00 0.00 52 1007.7
20260502214622 16 180 0.0 0.0 0.00 0.00 0.00 52 1007.7
20260502213859 16 180 0.0 0.0 0.00 0.00 0.00 53 1007.6
20260502213626 16 180 0.0 0.0 0.00 0.00 0.00 53 1007.7
20260502212859 16 180 0.0 0.0 0.00 0.00 0.00 54 1007.8
20260502212401 15 180 0.0 0.0 0.00 0.00 0.00 55 1007.8
20260502211859 15 180 0.0 0.0 0.00 0.00 0.00 56 1007.8
20260502211400 15 180 0.0 0.0 0.00 0.00 0.00 57 1007.8
20260502211121 15 180 0.0 0.0 0.00 0.00 0.00 60 1007.8
20260502210400 15 180 0.0 0.0 0.00 0.00 0.00 61 1007.8
20260502205859 14 180 0.0 0.0 0.00 0.00 0.00 62 1007.8
20260502205400 14 180 0.0 0.0 0.00 0.00 0.00 64 1007.8
20260502204858 13 180 0.0 0.0 0.00 0.00 0.00 67 1007.8
20260502204359 12 180 0.0 0.0 0.00 0.00 0.00 68 1007.8
20260502203859 12 180 0.0 0.0 0.00 0.00 0.00 68 1007.9
20260502203619 12 180 0.0 0.0 0.00 0.00 0.00 68 1008.0
20260502202858 12 180 0.0 0.0 0.00 0.00 0.00 68 1007.9
20260502202359 12 180 0.0 0.0 0.00 0.00 0.00 68 1007.9
20260502201858 12 180 0.0 0.0 0.00 0.00 0.00 69 1008.0
20260502201621 12 180 0.0 0.0 0.00 0.00 0.00 68 1007.9
20260502200858 12 180 0.0 0.0 0.00 0.00 0.00 69 1007.8
20260502200357 12 180 0.0 0.0 0.00 0.00 0.00 69 1007.8
20260502195856 12 180 0.0 0.0 0.00 0.00 0.00 69 1007.9
20260502195357 12 180 0.0 0.0 0.00 0.00 0.00 68 1007.8
20260502194856 12 180 0.0 0.0 0.00 0.00 0.00 69 1007.8
20260502194357 12 180 0.0 0.0 0.00 0.00 0.00 69 1007.8
20260502193856 12 180 0.0 0.0 0.00 0.00 0.00 69 1007.7
20260502193356 12 180 0.0 0.0 0.00 0.00 0.00 68 1007.7
20260502193119 12 180 0.0 0.0 0.00 0.00 0.00 68 1007.7
20260502192357 12 180 0.0 0.0 0.00 0.00 0.00 68 1007.7
20260502192116 12 180 0.0 0.0 0.00 0.00 0.00 68 1007.7
20260502191356 12 180 0.0 0.0 0.00 0.00 0.00 69 1007.7
20260502190856 12 180 0.0 0.0 0.00 0.00 0.00 69 1007.7
20260502190355 12 180 0.0 0.0 0.00 0.00 0.00 68 1007.7
20260502185855 12 180 0.0 0.0 0.00 0.00 0.00 67 1007.7
20260502185356 13 180 0.0 0.0 0.00 0.00 0.00 67 1007.7
20260502184855 13 180 0.0 0.0 0.00 0.00 0.00 67 1007.8
20260502184355 13 180 0.0 0.0 0.00 0.00 0.00 67 1007.7
20260502183854 13 180 0.0 0.0 0.00 0.00 0.00 66 1007.6
20260502183616 13 180 0.0 0.0 0.00 0.00 0.00 67 1007.7
20260502182855 13 180 0.0 0.0 0.00 0.00 0.00 67 1007.7
20260502182355 13 180 0.0 0.0 0.00 0.00 0.00 67 1007.7
20260502181854 12 180 0.0 0.0 0.00 0.00 0.00 68 1007.7
20260502181621 12 180 0.0 0.0 0.00 0.00 0.00 68 1007.6
20260502180853 13 180 0.0 0.0 0.00 0.00 0.00 68 1007.6
20260502180355 13 180 0.0 0.0 0.00 0.00 0.00 67 1007.6
20260502170354 13 180 0.0 0.0 0.00 0.00 0.00 65 1007.7
20260502164116 13 180 0.0 0.0 0.00 0.00 0.00 63 1008.0
20260502163354 14 180 0.0 0.0 0.00 0.00 0.00 63 1008.1
20260502162851 14 180 0.0 0.0 0.00 0.00 0.00 62 1008.2
20260502162353 14 180 0.0 0.0 0.00 0.00 0.00 62 1008.1
20260502161851 14 180 0.0 0.0 0.00 0.00 0.00 62 1008.3
20260502161353 14 180 0.0 0.0 0.00 0.00 0.00 62 1008.4
20260502160851 14 180 0.0 0.0 0.00 0.00 0.00 62 1008.4
20260502160352 14 180 0.0 0.0 0.00 0.00 0.00 61 1008.6
20260502160115 14 180 0.0 0.0 0.00 0.00 0.00 61 1008.6
20260502151850 16 180 0.0 0.0 0.00 0.00 0.00 54 1009.1
20260502151352 16 180 0.0 0.0 0.00 0.00 0.00 54 1009.2
20260502150850 16 180 0.0 0.0 0.00 0.00 0.00 54 1009.3
20260502150351 16 180 0.0 0.0 0.00 0.00 0.00 55 1009.4
20260502130545 20 180 0.0 0.0 0.00 0.00 0.00 42 1010.5
20260502123346 20 180 0.0 0.0 0.00 0.00 0.00 42 1010.9
20260502122846 19 180 0.0 0.0 0.00 0.00 0.00 43 1010.9
20260502122346 18 180 0.0 33.8 0.00 0.00 0.00 43 1011.0
20260502121846 19 180 0.0 33.8 0.00 0.00 0.00 43 1011.1
20260502121346 18 180 0.0 0.0 0.00 0.00 0.00 45 1011.1
20260502120846 18 180 0.0 0.0 0.00 0.00 0.00 44 1011.2
20260502120343 18 180 0.0 0.0 0.00 0.00 0.00 43 1011.3
20260502115844 19 180 0.0 0.0 0.00 0.00 0.00 42 1011.3
20260502115344 19 180 0.0 0.0 0.00 0.00 0.00 43 1011.4
20260502114844 18 180 0.0 0.0 0.00 0.00 0.00 44 1011.4
20260502114349 19 180 0.0 0.0 0.00 0.00 0.00 42 1011.4
20260502113844 19 180 0.0 0.0 0.00 0.00 0.00 41 1011.4
20260502113343 19 180 0.0 0.0 0.00 0.00 0.00 41 1011.4
20260502112844 19 180 0.0 0.0 0.00 0.00 0.00 42 1011.5
20260502112343 19 180 0.0 0.0 0.00 0.00 0.00 41 1011.6
20260502111843 19 180 0.0 0.0 0.00 0.00 0.00 41 1011.7
20260502111342 18 180 0.0 0.0 0.00 0.00 0.00 43 1011.6
20260502110842 18 180 0.0 0.0 0.00 0.00 0.00 44 1011.7
20260502110341 18 180 0.0 0.0 0.00 0.00 0.00 44 1011.9
20260502105841 18 180 0.0 0.0 0.00 0.00 0.00 43 1011.8
20260502105342 18 180 0.0 0.0 0.00 0.00 0.00 42 1011.9
20260502104841 18 180 0.0 0.0 0.00 0.00 0.00 42 1012.0
20260502104608 18 180 0.0 0.0 0.00 0.00 0.00 41 1012.1
20260502103841 18 180 0.0 0.0 0.00 0.00 0.00 42 1012.1
20260502103341 18 180 0.0 0.0 0.00 0.00 0.00 42 1012.2
20260502102844 18 180 0.0 0.0 0.00 0.00 0.00 42 1012.2
20260502102344 18 180 0.0 0.0 0.00 0.00 0.00 42 1012.3
20260502101840 17 180 0.0 0.0 0.00 0.00 0.00 43 1012.3
20260502101341 17 180 0.0 0.0 0.00 0.00 0.00 43 1012.4
20260502100840 18 180 0.0 0.0 0.00 0.00 0.00 43 1012.4
20260502100341 17 180 0.0 0.0 0.00 0.00 0.00 42 1012.4
20260502091340 16 180 0.0 0.0 0.00 0.00 0.00 44 1012.9
20260502090839 16 180 0.0 0.0 0.00 0.00 0.00 46 1012.9
20260502090339 16 180 0.0 0.0 0.00 0.00 0.00 44 1012.9
20260502070836 13 180 0.0 0.0 0.00 0.00 0.00 53 1013.7
20260502070336 13 180 0.0 0.0 0.00 0.00 0.00 54 1013.8
20260502065836 13 180 0.0 0.0 0.00 0.00 0.00 54 1013.8
20260502065336 13 180 0.0 0.0 0.00 0.00 0.00 55 1013.7
20260502064837 13 180 0.0 0.0 0.00 0.00 0.00 54 1013.8
20260502064336 13 180 0.0 0.0 0.00 0.00 0.00 53 1013.8
20260502063836 13 180 0.0 0.0 0.00 0.00 0.00 54 1013.8
20260502063336 14 180 0.0 0.0 0.00 0.00 0.00 51 1013.9
20260502062836 14 180 0.0 0.0 0.00 0.00 0.00 51 1013.9
20260502062336 13 180 0.0 0.0 0.00 0.00 0.00 52 1013.9
20260502061836 13 180 0.0 17.7 0.00 0.00 0.00 52 1013.9
20260502061556 13 180 0.0 17.7 0.00 0.00 0.00 52 1014.0
20260502060836 13 180 0.0 0.0 0.00 0.00 0.00 52 1014.0
20260502060335 13 180 0.0 0.0 0.00 0.00 0.00 53 1014.0
20260502055835 13 180 0.0 0.0 0.00 0.00 0.00 53 1014.1
20260502055335 13 180 0.0 0.0 0.00 0.00 0.00 53 1014.1
20260502055057 13 180 0.0 0.0 0.00 0.00 0.00 52 1014.2
20260502054559 13 180 0.0 0.0 0.00 0.00 0.00 52 1014.2
20260502053835 13 180 0.0 0.0 0.00 0.00 0.00 53 1014.2
20260502053334 13 180 0.0 0.0 0.00 0.00 0.00 53 1014.2
20260502052835 13 180 0.0 0.0 0.00 0.00 0.00 53 1014.2
20260502052558 13 180 0.0 0.0 0.00 0.00 0.00 53 1014.3
20260502051834 13 180 0.0 0.0 0.00 0.00 0.00 54 1014.3
20260502051334 13 180 0.0 0.0 0.00 0.00 0.00 54 1014.3
20260502051104 13 180 0.0 0.0 0.00 0.00 0.00 53 1014.3
20260502050334 13 180 0.0 0.0 0.00 0.00 0.00 54 1014.3
20260502050055 13 180 0.0 0.0 0.00 0.00 0.00 54 1014.3
20260502045559 13 180 0.0 0.0 0.00 0.00 0.00 54 1014.3
20260502044834 13 180 0.0 0.0 0.00 0.00 0.00 54 1014.3
20260502044556 13 180 0.0 0.0 0.00 0.00 0.00 55 1014.3
20260502043833 13 180 0.0 0.0 0.00 0.00 0.00 55 1014.4
20260502043333 12 180 0.0 0.0 0.00 0.00 0.00 55 1014.4
20260502043100 12 180 0.0 0.0 0.00 0.00 0.00 55 1014.3
20260502042334 12 180 0.0 0.0 0.00 0.00 0.00 56 1014.4
20260502041832 12 180 0.0 0.0 0.00 0.00 0.00 56 1014.4
20260502041333 12 180 0.0 0.0 0.00 0.00 0.00 56 1014.4
20260502040832 12 180 0.0 0.0 0.00 0.00 0.00 56 1014.4
20260502040333 12 180 0.0 0.0 0.00 0.00 0.00 57 1014.4
20260502035832 12 180 0.0 0.0 0.00 0.00 0.00 56 1014.5
20260502035556 12 180 0.0 0.0 0.00 0.00 0.00 57 1014.4
20260502034832 12 180 0.0 0.0 0.00 0.00 0.00 57 1014.5
20260502034559 12 180 0.0 0.0 0.00 0.00 0.00 57 1014.5
20260502034052 12 180 0.0 0.0 0.00 0.00 0.00 58 1014.6
20260502033332 11 180 0.0 0.0 0.00 0.00 0.00 59 1014.6
20260502033315 11 180 0.0 0.0 0.00 0.00 0.00 59 1014.7
20260502032332 11 180 0.0 0.0 0.00 0.00 0.00 59 1014.6
20260502031832 11 180 0.0 0.0 0.00 0.00 0.00 59 1014.8
20260502031331 11 180 0.0 0.0 0.00 0.00 0.00 59 1014.7
20260502030832 11 180 0.0 0.0 0.00 0.00 0.00 60 1014.7
20260502030332 11 180 0.0 0.0 0.00 0.00 0.00 60 1014.8
20260502025832 11 180 0.0 0.0 0.00 0.00 0.00 59 1014.8
20260502025331 11 180 0.0 0.0 0.00 0.00 0.00 59 1014.9
20260502024831 11 180 0.0 0.0 0.00 0.00 0.00 59 1015.0
20260502024549 11 180 0.0 0.0 0.00 0.00 0.00 58 1015.0
20260502023831 11 180 0.0 0.0 0.00 0.00 0.00 58 1015.0
20260502023332 12 180 0.0 0.0 0.00 0.00 0.00 58 1014.9
20260502022832 12 180 0.0 0.0 0.00 0.00 0.00 57 1015.0
20260502022333 12 180 0.0 0.0 0.00 0.00 0.00 58 1015.0